1st Responders/1st Detectors/Storm Spotters Weather Summary for Harrison County, KY

Forecast Maps


Reg. NEXRAD Animation


National Fire Danger: Day 1 & 2 Map

Current NWS Watch/Warnings

SPC Convective Day 1 Outlook


Day 2 Outlook

(Click images to enlarge|Page will refresh every 5 minutes)
UK Ag. Weather Center Desktop Severe Weather Service[HERE]
Harrison County, KY Hazardous Weather Outlook Webcast
(9 AM to 9 PM Mon-Fri)
[Fast]
[Dial-up]


UKAWC 1st Detectors/1st Responders Precision Weather Forecast For HARRISON County, Kentucky
(based on the NWS County Digital Forecast)

ISSUED AT 01:00 UTC ON TUESDAY MAR 31 2020
DAY MONDAY TUESDAY
EDT 3HR 10P 11P MIDN 1A 2A 3A 4A 5A 6A 7A 8A 9A 10A 11A NOON 1P 2P 3P 4P 5P 6P 7P
MAX/MIN -- -- -- -- -- -- -- -- -- -- 38° -- -- -- -- -- -- -- -- -- -- 45°
TEMP 52° 49° 49° 47° 45° 43° 41° 41° 40° 40° 40° 40° 43° 43° 45° 45° 45° 45° 45° 45° 45° 45°
SKY COVER 32% 47% 49% 57% 60% 62% 69% 81% 88% 91% 93% 93% 93% 93% 96% 85% 95% 97% 92% 94% 96% 95%
Clouds
DEW PT 34° 36° 36° 36° 36° 36° 36° 34° 34° 34° 32° 32° 34° 34° 34° 34° 34° 34° 36° 36° 36° 36°
RH 52% 58% 60% 68% 70% 76% 78% 75% 76% 79% 75% 73% 69% 67% 64% 62% 65% 65% 68% 67% 68% 68%
POP 12HR -- -- -- -- -- -- -- -- -- -- 9% -- -- -- -- -- -- -- -- -- -- --
RAIN/SNOW (liq.equ) -- -- -- -- 0.00in -- -- -- -- -- 0.00in -- -- -- -- -- 0.00in -- -- -- -- --
SNOWFALL -- -- -- -- 0in -- -- -- -- -- 0in -- -- -- -- -- 0in -- -- -- -- --
WIND SPEED(MPH) 5 2 5 5 7 2 2 2 2 5 5 6 6 5 5 6 6 7 7 7 7 7
WIND Gust(MPH) 6 6 7 7 10 8 7 7 7 7 8 7 8 7 7 7 8 8 9 10 10 13
WIND DIR N N N NE NE N N N N NE NE NE NE NE NE NE N N N N N N
DEW -- -- -- -- Lgt Dew Lgt Dew Hvy Dew Lgt Dew Patchy Frost -- -- -- -- -- -- -- -- -- -- -- -- --
HeatIndex 52 49 49 47 40 41 40 40 38 36 36 37 39 41 42 45 45 45 45 45 45 45
Rain -- -- -- -- -- -- -- -- -- -- -- -- -- -- Slight Chance -- Slight Chance Slight Chance -- -- Slight Chance --
Rain Showers -- -- -- -- -- -- -- -- -- -- -- Slight Chance Slight Chance Slight Chance -- Slight Chance -- -- Slight Chance Slight Chance -- --
WIND CHILL -- -- -- -- 41° -- -- -- -- 37° 37° 36° 39° 40° 43° 42° 42° 41° 41° 41° 41° 41°
SPRAY COND
DRY COND
LIVESTOCK COLDSTRESS



DAY TUESDAY WEDNESDAY THURSDAY FRIDAY SATURDAY SUNDAY MONDAY
EDT 6HR 8P 9P 10P 11P MIDN 1A 2A 3A 4A 5A 6A 7A 8A 9A 11A 2P 5P 8P 11P 2A 5A 8A 11A 2P 5P 8P 2A 8A 2P 8P 2A 8A 2P 8P 2A 8A 2P 8P 2A 8A 2P 8P
MAX/MIN -- -- -- -- -- -- -- -- -- -- -- -- 36° -- -- -- 52° -- -- -- -- 34° -- -- 61° -- -- 38° 65° -- -- 43° 67° -- -- 45° 67° -- -- 47° 67° --
TEMP 45° 45° 43° 43° 43° 43° 41° 40° 40° 38° 38° 38° 38° 40° 45° 50° 52° 49° 45° 40° 38° 36° 49° 58° 59° 54° 43° 40° 61° 58° 49° 45° 63° 59° 50° 45° 63° 61° 50° 49° 65° 61°
SKY COVER 92% 88% 85% 81% 77% 74% 70% 70% 70% 70% 70% 70% 70% 69% 66% 61% 53% 45% 35% 24% 24% 23% 23% 23% 25% 27% 37% 40% 28% 35% 39% 55% 54% 60% 61% 54% 46% 56% 63% 67% 63% 73%
Clouds
DEW PT 34° 34° 34° 36° 36° 36° 36° 36° 36° 36° 36° 36° 36° 36° 38° 38° 36° 38° 36° 36° 34° 34° 38° 40° 40° 40° 38° 36° 41° 43° 40° 40° 49° 49° 45° 43° 47° 47° 43° 45° 52° 52°
RH 65% 68% 70% 73% 79% 78% 82% 85% 85% 88% 92% 92% 89% 85% 79% 60% 54% 63% 73% 82% 88% 92% 66% 51% 47% 58% 78% 85% 47% 55% 70% 82% 58% 67% 82% 92% 53% 60% 76% 82% 63% 72%
POP 12HR 19% -- -- -- -- -- -- -- -- -- -- -- 12% -- -- -- -- 0% -- -- -- 0% -- -- -- 0% -- 0% -- 3% -- 2% -- 16% -- 25% -- 38% -- 35% -- 43%
RAIN/SNOW (liq.equ) 0.01in -- -- -- -- -- 0.00in -- -- -- -- -- 0.00in -- -- 0.00in -- 0.00in -- 0.00in -- 0.00in -- 0.00in -- 0.00in -- -- -- -- -- -- -- -- -- -- -- -- -- -- -- --
SNOWFALL 0in -- -- -- -- -- 0in -- -- -- -- -- 0in -- -- 0in -- 0in -- 0in -- 0in -- 0in -- 0in -- -- -- -- -- -- -- -- -- -- -- -- -- -- -- --
WIND SPEED(MPH) 7 7 7 7 7 7 7 7 7 7 7 7 7 7 7 7 7 5 2 1 0 1 2 1 1 2 5 5 6 6 5 5 2 5 5 6 7 2 2 7 7 7
WIND DIR N N N N N N N N N N N N N N N N N N N N N NE E NE NE NE E E E E E E SE SW SW NW W NE S SE SW S
HeatIndex 45 41 40 40 38 38 36 35 35 34 32 32 34 36 40 50 52 49 43 40 38 36 49 58 59 54 41 38 61 58 49 42 63 59 50 45 63 61 50 49 65 61
Rain -- -- -- -- -- -- -- -- -- -- -- -- -- -- -- -- -- -- -- -- -- -- -- -- -- -- -- -- -- -- -- -- -- -- -- -- -- -- -- -- -- --
Rain Showers -- -- -- -- -- -- -- -- -- -- -- -- -- -- -- -- -- -- -- -- -- -- -- -- -- -- -- -- -- -- -- -- Slight Chance Chance Slight Chance Chance Chance Chance Chance Chance Chance Chance
WIND CHILL 41° 41° 39° 39° 39° 39° 36° 35° 35° 33° 33° 33° 33° 35° 41° -- -- -- -- -- -- -- -- -- -- -- 40° 37° -- -- -- 43° -- -- -- 42° -- -- -- -- -- --
SPRAY COND
DRY COND
LIVESTOCK COLDSTRESS

Click on individual weather variable above in left-hand column (ie., TEMP, RH, QPF 12HR) to view state forecast maps






NWS 48 Hr. Forecast Maps,

Regional Hourly Observations For HARRISON County, Kentucky
Issued at 1000 PM EDT MON MAR 30 2020
NORTHEAST KENTUCKY
  
CITY           SKY/WX    TMP DP  RH WIND       PRES   REMARKS
LEXINGTON      FAIR      53  30  41 W6        30.09S                  
COVINGTON      FAIR      50  36  58 NE9       30.09S                  
FRANKFORT      FAIR      50  36  58 CALM      30.07F                  


Current NOWCAST not available:
Nowcasts are not issued routinely during fair weather. Only when
precipitation or other significant weather is occuring in this county will these
forecasts be issued. Currently, there is no short term forecast in effect.


Fire Weather Forecast For HARRISON County, KY
Provided by the National Weather Service:

Issued at: Mon Mar 30 21:05:01 EDT 2020


                      Tonight      Tue          Tue Night    Wed          

CLOUD COVER           Pcldy        Cloudy       Mcldy        Pcldy        
PRECIP TYPE           None         Rain         None         None         
CHANCE PRECIP (%)     0            30           0            0            
TEMP (24H TREND)      38 (-7)      49 (-13)     36           53           
RH % (24H TREND)      83 (+12)     62 (+25)     93           52           
20FTWND-VAL/AM(MPH)                NE  5                     N  6         
20FTWND-RDG/PM(MPH)   NW  5        NE  6        N  5         N  6         
PRECIP AMOUNT         0.00         0.04         0.00         0.00         
MIXING HGT(FT-AGL/MSL)             4030                      3473         
TRANSPORT WND (MPH)                N  9                      N 12         
VENT RATE (KT-FT)                  35072                     35563        
DISPERSION                         Marginal                  Marginal     
DSI                   SLGT UNSTBL  STBL         SLGT UNSTBL  MOD UNSTBL   
LAL                   1            1            1            1            
HAINES INDEX          2            2            2            2            
ADI EARLY             11 POOR      17 GEN POOR  7 POOR       0 VERY POOR  
ADI LATE              5 VERY POOR  27 FAIR      0 VERY POOR  0 VERY POOR  
MAX LVORI EARLY       3            4            5            7            
MAX LVORI LATE        4            3            7            4            

REMARKS...ADI IS ATMOSPHERIC DISPERSION INDEX BY LAVDAS.        
LVORI IS LOW VISIBILITY OCCURRENCE RISK INDEX.

.THURSDAY...Partly cloudy. Lows in the mid 30s. Highs in the
lower 60s. North winds around 5 mph. 
.FRIDAY...Partly cloudy. Lows around 40. Highs in the mid 60s.
East winds up to 5 mph. 
.SATURDAY...Partly cloudy. Lows in the mid 40s. Highs in the
upper 60s. South winds up to 5 mph. 
.SUNDAY...Mostly cloudy. A 40 percent chance of rain showers.
Lows in the mid 40s. Highs in the upper 60s. West winds 5 to
10 mph. 
.MONDAY...Mostly cloudy. A 50 percent chance of rain showers.
Lows in the upper 40s. Highs in the upper 60s. South winds up to
10 mph. 

SPC's Fire Weather Web Tool (Excellent!), SPC's Fire Weather Outlooks, NWS Fire Weather WEB, Fire Danger Class Map,
Keetch-Byram Drought Index, ROMAN Web, Haines Index ,
WFAS's 10-hr Dead Fuel Moist., WFAS's 100-hr Dead Fuel Moist., Probablity of Ignition, Visual blackness Map, Palmer Drought Index, HPC's Rainfall Forecast Maps


Hazardous Weather Outlook For HARRISON County, Kentucky
516 PM EDT Mon Mar 30 2020 /416 PM CDT Mon Mar 30 2020/

 DAY ONE  Tonight.

No hazardous weather is expected at this time. 

 DAYS TWO THROUGH SEVEN  Tuesday through Sunday.

No hazardous weather is expected at this time.

 SPOTTER INFORMATION STATEMENT  

Spotter activation is not anticipated at this time.

Latest HARRISON County, Kentucky Watches, Warnings and Advisories.
Additional Drought Info.: UKAWC Drought Page, Kentucky Drought Watch


7-Day Forecast For HARRISON County, KY

REST OF TONIGHT
Partly cloudy late in the evening then becoming mostly cloudy. Lows in the upper 30s. North winds around 5 mph.

TUESDAY
Cloudy with a 20 percent chance of rain. Highs in the upper 40s. Northeast winds 5 to 10 mph.

TUESDAY NIGHT
Mostly cloudy. Chance of sprinkles. Lows in the upper 30s. North winds 5 to 10 mph.

WEDNESDAY
Partly cloudy. Highs in the lower 50s. North winds 5 to 10 mph.

WEDNESDAY NIGHT
Partly cloudy. Lows in the mid 30s. North winds up to 5 mph.

THURSDAY
Mostly sunny. Highs in the lower 60s.

THURSDAY NIGHT
Partly cloudy. Lows in the upper 30s.

FRIDAY
Partly cloudy. Highs in the mid 60s.

FRIDAY NIGHT
Partly cloudy. Lows in the mid 40s.

SATURDAY
Partly cloudy with a 20 percent chance of showers. Highs in the upper 60s.

SATURDAY NIGHT
Partly cloudy with a 30 percent chance of showers. Lows in the mid 40s.

SUNDAY
Partly cloudy with a 40 percent chance of showers. Highs in the upper 60s.

SUNDAY NIGHT
Partly cloudy with a 40 percent chance of showers. Lows in the upper 40s.

MONDAY
Partly cloudy with a 40 percent chance of showers. Highs in the upper 60s.

Ag Weather Center, Department of Biosystems & Agricultural Engineering, University of Kentucky